Regional Weather Roundup
Issued by NWS

Home | Current Version | Previous Version | Text Only | Print | Product List | Glossary Off
Versions: 1 2 3 4 5 6 7 8 9 10 11 12 13 14 15 16 17 18 19 20 21 22 23 24 25 26 27 28 29 30 31 32 33 34 35 36 37 38 39 40 41 42 43 44 45 46 47 48 49 50

568
ASUS43 KLSX 140810
RWRMO

WEATHER SUMMARY FOR MISSOURI
NATIONAL WEATHER SERVICE SPRINGFIELD MO
200 AM CST SUN FEB 14 2016

NOTE: "FAIR" INDICATES FEW OR NO CLOUDS BELOW 12,000 FEET WITH NO
       SIGNIFICANT WEATHER AND/OR OBSTRUCTIONS TO VISIBILITY.
       CURRENT SKY AND/OR WEATHER CONDITIONS ARE NOT AVAILABLE FOR
       CHILLICOTHE AND FARMINGTON.

MOZ001>031-035>038-043-044-053-054-140900-
...NORTHERN AND WESTERN MISSOURI...

CITY           SKY/WX    TMP DP  RH WIND       PRES   REMARKS
KANSAS CTY INT CLOUDY    22   6  50 E15       30.11F WCI   9
KANSAS C DTWN  CLOUDY    25   5  42 E9        30.13F WCI  15
LEE`S SUMMIT   CLOUDY    24   6  46 E10       30.13F WCI  14
ST JOSEPH      CLOUDY    23   4  44 SE10      30.15F WCI  12
CHILLICOTHE      N/A     23   5  46 SE13G18   30.21F WCI  11
KIRKSVILLE     CLOUDY    19   6  57 SE17      30.24F WCI   4

$$
MOZ066>068-077>081-088>096-101>105-140900-
...SOUTHWEST MISSOURI...

CITY           SKY/WX    TMP DP  RH WIND       PRES   REMARKS
SPRINGFIELD    CLOUDY    28   6  39 SE24G31   30.10F WCI  14
JOPLIN         CLOUDY    36  11  35 SE12G21   30.05F WCI  28

$$
MOZ032>034-039>042-045>050-055>058-069>072-140900-
...CENTRAL MISSOURI...

CITY           SKY/WX    TMP DP  RH WIND       PRES   REMARKS
COLUMBIA       CLOUDY    22   4  46 SE15G23   30.23F WCI   9
JEFFERSON CITY CLOUDY    24   5  44 E14       30.27F WCI  12
ROLLA          CLOUDY    23   3  42 SE12      30.22F WCI  12
SEDALIA        CLOUDY    26   4  38 SE15      30.19F WCI  14
WHITEMAN AFB   CLOUDY    26   5  40 E10       30.15F WCI  15
WARRENSBURG    CLOUDY    27   5  39 E12       30.16F WCI  16
OSAGE BEACH    CLOUDY    27   1  33 E8        30.20F WCI  18

$$
MOZ051-052-059>065-140900-
...EAST CENTRAL MISSOURI...

CITY           SKY/WX    TMP DP  RH WIND       PRES   REMARKS
ST LOUIS INTL  CLOUDY    24   7  48 E12       30.37F WCI  13
SPIRIT OF STL  CLOUDY    23   7  50 SE8       30.35F WCI  14
ST CHARLES     CLOUDY    23   9  55 E14       30.37F WCI  11

$$
MOZ072>076-082>087-097>100-106>115-140900-
...SOUTH CENTRAL AND SOUTHEAST MISSOURI...

CITY           SKY/WX    TMP DP  RH WIND       PRES   REMARKS
CAPE GIRARDEAU CLOUDY    25   8  48 E9        30.37S WCI  15
FARMINGTON     CLOUDY    23   8  52 E9        30.32F WCI  13
POPLAR BLUFF   CLOUDY    28   9  44 E6        30.35S WCI  22
WEST PLAINS    CLOUDY    24   4  42 SE10      30.24F WCI  14

$$




USA.gov is the U.S. government's official web portal to all federal, state and local government web resources and services.